Content
SEND FEEDBACK

Daily
Averages
Monthly
Summary
United States of America

CHICAGO, ILLINOIS


Home > North America > United States > Illinois
Elevation: 205 meters     Latitude: 41 59N     Longitude: 087 54W

WEATHER
 
SELECT A DAY
Number of Records: 194,860;   Date Range: 7/8/95 - 7/26/14
 
SHARE

PRINT THIS DATA

[ ← Previous Day ]
WEATHER ALMANAC - 31 MARCH, 2013
[ Next Day → ]
[ °F ]   °C
Weather ElementAverageHighLow
Temperature8.1 °C13.9 °C (2:52 pm)2.8 °C (11:52 pm)
Dewpoint2 °C6.1 °C (2:52 am)-5 °C (11:52 pm)
Humidity67.8 %87 % (2:23 am)33 % (3:52 pm)
Barometer1008.8 hPa1012.9 hPa (11:52 pm)1006.1 hPa (2:52 pm)
Wind Speed18.7 km/h33.3 km/h (3:52 pm)
Wind Gust50.1 km/h (4:52 pm)
Weather ElementAverage
Visibility12.2 km
Wind DirectionWNW (278.7 °)

Weather ElementTotal
Precipitation---
Heating Degree Days10 (Base 18.3)
Averaged from 31 records on 31 March, 2013
WEATHER CONDITIONS BREAKOUT
WIND DIRECTION BREAKOUT
WEATHER BY HOUR - 31 MARCH, 2013
[ °F ]   °C
Local TimeTemperatureDewpointHumidityBarometerVisibilityWind DirectionWind SpeedGust SpeedPrecipitationEventsConditions
1:48 AM9 °C6 °C82 %1009.5 hPa9.7 kmWSW (240°)14.8 km/hHaze
1:52 AM8.9 °C5.6 °C80 %1009.8 hPa9.7 kmWSW (240°)13 km/hHaze
2:23 AM8 °C6 °C87 %1009.1 hPa8 kmWSW (240°)11.1 km/hHaze
2:52 AM8.3 °C6.1 °C86 %1009.1 hPa4.8 kmWSW (250°)11.1 km/hOvercast
3:20 AM8 °C6 °C87 %1008.8 hPa8 kmWest (280°)13 km/hOvercast
3:52 AM7.8 °C5.6 °C86 %1008.8 hPa8 kmWest (280°)11.1 km/hOvercast
4:08 AM8 °C6 °C87 %1008.5 hPa9.7 kmWest (280°)11.1 km/hOvercast
4:19 AM8 °C6 °C87 %1008.5 hPa9.7 kmWNW (290°)14.8 km/hOvercast
4:52 AM7.8 °C5 °C83 %1008.5 hPa9.7 kmWest (280°)11.1 km/hHaze
5:49 AM7 °C4 °C81 %1008.5 hPa12.9 kmWest (280°)9.3 km/hPartly Cloudy
5:52 AM7.2 °C3.9 °C80 %1008.5 hPa12.9 kmWNW (290°)14.8 km/hScattered Clouds
6:52 AM6.1 °C3.3 °C82 %1008.8 hPa9.7 kmWNW (300°)14.8 km/hHaze
7:33 AM6 °C3 °C81 %1008.8 hPa9.7 kmWNW (300°)13 km/hHaze
7:52 AM5.6 °C2.2 °C79 %1009.1 hPa9.7 kmWNW (290°)18.5 km/hHaze
8:52 AM6.1 °C2.8 °C80 %1009.1 hPa9.7 kmWSW (250°)11.1 km/hHaze
9:52 AM6.7 °C2.8 °C76 %1009.1 hPa8 kmWest (260°)16.7 km/hHaze
10:33 AM8 °C3 °C71 %1008.5 hPa9.7 kmWest (260°)16.7 km/h29.6 km/hHaze
10:52 AM9.4 °C3.3 °C66 %1008.5 hPa11.3 kmWest (260°)18.5 km/h25.9 km/hClear
11:52 AM11.7 °C2.8 °C55 %1008.1 hPa16.1 kmWest (280°)22.2 km/h33.3 km/hClear
12:52 PM13.3 °C2.2 °C47 %1007.1 hPa16.1 kmWest (280°)31.5 km/h37 km/hScattered Clouds
1:52 PM13.3 °C1.7 °C45 %1006.8 hPa16.1 kmWest (280°)20.4 km/h38.9 km/hMostly Cloudy
2:52 PM13.9 °C1.1 °C42 %1006.1 hPa16.1 kmWest (260°)29.6 km/h46.3 km/hMostly Cloudy
3:52 PM13.9 °C-2.2 °C33 %1006.4 hPa16.1 kmWest (270°)33.3 km/h46.3 km/hMostly Cloudy
4:52 PM11.7 °C-2.2 °C38 %1007.1 hPa16.1 kmWNW (300°)33.3 km/h50.1 km/hClear
5:52 PM8.3 °C-1.1 °C52 %1008.5 hPa16.1 kmWNW (300°)29.6 km/h44.4 km/hPartly Cloudy
6:52 PM7.8 °C-2.2 °C50 %1009.1 hPa16.1 kmWNW (290°)20.4 km/hPartly Cloudy
7:52 PM5.6 °C-3.3 °C53 %1010.2 hPa16.1 kmWNW (300°)24.1 km/hScattered Clouds
8:52 PM5 °C-3.3 °C55 %1011.2 hPa16.1 kmWNW (290°)20.4 km/hClear
9:52 PM4.4 °C-3.3 °C58 %1011.9 hPa16.1 kmWNW (290°)25.9 km/h35.2 km/hMostly Cloudy
10:52 PM3.9 °C-3.9 °C57 %1012.2 hPa16.1 kmNW (310°)22.2 km/h0 mmScattered Clouds
11:52 PM2.8 °C-5 °C57 %1012.9 hPa16.1 kmNW (320°)18.5 km/hPartly Cloudy
Hourly data recorded from KPWK, located 0 kilometers away from Chicago, Illinois







STORIES FROM OUR PARTNERS